Track ONEWEB-0303 now! 10-day predictions ONEWEB-0303 is classified as:
1 49187U 21083B 22144.25002315 .00046272 00000-0 11678+0 0 9997 2 49187 87.9114 270.5190 0002190 107.8454 264.0893 13.18663758 35554